ARA235 LROP-LOWI

Flight info

Callsign ARA235
Flight time N/A
Altitude 36000
Route SOKRU DCT MOPUG DCT GOTAR DCT NANIT NANIT2A
Aircraft B737/M-SDE2E3FGHIRWXY/LB1

Departure

Time 2026-04-30 09:26
Airport Bucharest Henri Coandă International Airport (LROP)

Arrival

Time N/A
Airport Innsbruck Airport (LOWI)
Time Latitude Longitude Altitude Speed Heading
2026-04-30 08:56 44.57005 26.07963 327 ft 0 kts 353°
2026-04-30 09:07 44.57006 26.07963 327 ft 0 kts 353°
2026-04-30 09:08 44.57005 26.07963 327 ft 0 kts 353°
2026-04-30 09:12 44.57006 26.07963 327 ft 0 kts 353°
2026-04-30 09:12 44.57005 26.07963 327 ft 0 kts 353°
2026-04-30 09:21 44.56997 26.07964 324 ft 2 kts 353°
2026-04-30 09:21 44.56980 26.07967 324 ft 2 kts 353°
2026-04-30 09:21 44.56964 26.07970 324 ft 2 kts 353°
2026-04-30 09:22 44.56948 26.07973 325 ft 2 kts 353°
2026-04-30 09:22 44.56933 26.07975 324 ft 0 kts 353°
2026-04-30 09:24 44.56941 26.07991 326 ft 4 kts 79°
2026-04-30 09:24 44.56936 26.08169 323 ft 24 kts 82°
2026-04-30 09:24 44.56967 26.08381 326 ft 19 kts 35°
2026-04-30 09:24 44.57094 26.08378 324 ft 18 kts 354°
2026-04-30 09:25 44.57216 26.08385 324 ft 15 kts 53°
2026-04-30 09:25 44.57268 26.08492 327 ft 16 kts 358°
2026-04-30 09:25 44.57433 26.08468 323 ft 28 kts 354°
2026-04-30 09:25 44.57601 26.08443 324 ft 22 kts 354°
2026-04-30 09:26 44.57677 26.08593 324 ft 44 kts 84°
2026-04-30 09:26 44.57741 26.09431 321 ft 125 kts 82°
2026-04-30 09:26 44.57886 26.10826 887 ft 149 kts 79°
2026-04-30 09:26 44.57983 26.12262 2082 ft 145 kts 80°
2026-04-30 09:27 44.58099 26.13837 2643 ft 177 kts 81°
2026-04-30 09:27 44.58232 26.15670 3157 ft 196 kts 82°
2026-04-30 09:27 44.58378 26.17601 3938 ft 204 kts 82°
2026-04-30 09:27 44.58545 26.19633 4799 ft 213 kts 80°
2026-04-30 09:28 44.59170 26.21614 5381 ft 239 kts 51°
2026-04-30 09:28 44.60585 26.22979 6114 ft 261 kts 21°
2026-04-30 09:28 44.62435 26.23162 6912 ft 276 kts 351°
2026-04-30 09:28 44.64285 26.22457 7989 ft 275 kts 342°
2026-04-30 09:29 44.66093 26.21573 9006 ft 277 kts 341°
2026-04-30 09:29 44.67924 26.20672 10006 ft 280 kts 341°
2026-04-30 09:29 44.69783 26.19795 10824 ft 288 kts 341°
2026-04-30 09:29 44.71770 26.18887 11092 ft 314 kts 341°
2026-04-30 09:30 44.73942 26.17911 11320 ft 341 kts 341°
2026-04-30 09:30 44.76190 26.16558 11490 ft 364 kts 325°
2026-04-30 09:30 44.78080 26.14094 11987 ft 376 kts 310°
2026-04-30 09:30 44.79681 26.11150 12719 ft 380 kts 301°
2026-04-30 09:31 44.80896 26.07841 13557 ft 381 kts 291°
2026-04-30 09:31 44.81907 26.04368 14361 ft 385 kts 289°
2026-04-30 09:31 44.82868 26.00863 15297 ft 381 kts 288°
2026-04-30 09:31 44.83811 25.97375 16143 ft 382 kts 288°
2026-04-30 09:32 44.84763 25.93864 16862 ft 384 kts 288°
2026-04-30 09:32 44.85714 25.90386 17618 ft 385 kts 288°
2026-04-30 09:32 44.86685 25.86865 18372 ft 386 kts 288°
2026-04-30 09:32 44.87663 25.83335 19022 ft 387 kts 288°
2026-04-30 09:33 44.88646 25.79798 19659 ft 387 kts 288°
2026-04-30 09:33 44.89632 25.76256 20298 ft 388 kts 288°
2026-04-30 09:33 44.90620 25.72708 20908 ft 389 kts 288°
2026-04-30 09:33 44.91611 25.69146 21501 ft 391 kts 288°
2026-04-30 09:34 44.92603 25.65576 22101 ft 391 kts 287°
2026-04-30 09:34 44.93597 25.61995 22695 ft 392 kts 287°
2026-04-30 09:34 44.94591 25.58405 23271 ft 393 kts 287°
2026-04-30 09:34 44.95589 25.54800 23802 ft 395 kts 287°
2026-04-30 09:35 44.96589 25.51176 24250 ft 397 kts 287°
2026-04-30 09:35 44.97590 25.47548 24694 ft 397 kts 287°
2026-04-30 09:35 44.98594 25.43904 25128 ft 398 kts 287°
2026-04-30 09:35 44.99598 25.40253 25539 ft 400 kts 287°
2026-04-30 09:36 45.00605 25.36586 25945 ft 401 kts 287°
2026-04-30 09:36 45.01613 25.32908 26355 ft 402 kts 287°
2026-04-30 09:36 45.02624 25.29217 26745 ft 403 kts 287°
2026-04-30 09:36 45.03634 25.25520 27133 ft 404 kts 287°
2026-04-30 09:37 45.04644 25.21819 27521 ft 404 kts 287°
2026-04-30 09:37 45.05641 25.18163 28010 ft 402 kts 286°
2026-04-30 09:37 45.06642 25.14493 28596 ft 398 kts 286°
2026-04-30 09:37 45.07630 25.10861 29193 ft 394 kts 286°
2026-04-30 09:38 45.08609 25.07259 29768 ft 391 kts 286°
2026-04-30 09:38 45.09581 25.03670 30320 ft 388 kts 286°
2026-04-30 09:38 45.10545 25.00108 30707 ft 388 kts 286°
2026-04-30 09:38 45.11512 24.96518 30905 ft 392 kts 286°
2026-04-30 09:39 45.12487 24.92893 31118 ft 395 kts 286°
2026-04-30 09:39 45.13467 24.89249 31389 ft 397 kts 287°
2026-04-30 09:39 45.14450 24.85590 31686 ft 398 kts 287°
2026-04-30 09:39 45.15436 24.81916 31953 ft 400 kts 287°
2026-04-30 09:40 45.16427 24.78218 32201 ft 402 kts 287°
2026-04-30 09:40 45.17422 24.74500 32457 ft 404 kts 287°
2026-04-30 09:40 45.18406 24.70816 32710 ft 405 kts 287°
2026-04-30 09:40 45.19406 24.67069 32950 ft 407 kts 288°
2026-04-30 09:41 45.20408 24.63306 33193 ft 409 kts 288°
2026-04-30 09:41 45.21414 24.59524 33415 ft 411 kts 288°
2026-04-30 09:41 45.22424 24.55719 33576 ft 414 kts 288°
2026-04-30 09:41 45.23439 24.51889 33773 ft 416 kts 288°
2026-04-30 09:42 45.24457 24.48044 34032 ft 416 kts 288°
2026-04-30 09:42 45.25474 24.44196 34277 ft 417 kts 288°
2026-04-30 09:42 45.27518 24.36441 34268 ft 418 kts 288°
2026-04-30 09:43 45.29552 24.28698 34276 ft 418 kts 288°
2026-04-30 09:43 45.31587 24.20923 34397 ft 422 kts 288°
2026-04-30 09:44 45.32608 24.17013 34609 ft 422 kts 288°
2026-04-30 09:44 45.33628 24.13100 34838 ft 422 kts 288°
2026-04-30 09:44 45.34647 24.09187 35004 ft 423 kts 288°
2026-04-30 09:44 45.35669 24.05256 35182 ft 424 kts 288°
2026-04-30 09:45 45.36677 24.01371 35376 ft 424 kts 288°
2026-04-30 09:45 45.37696 23.97435 35585 ft 424 kts 288°
2026-04-30 09:45 45.38714 23.93497 35744 ft 425 kts 289°
2026-04-30 09:45 45.39737 23.89535 35895 ft 426 kts 289°
2026-04-30 09:46 45.40757 23.85575 36077 ft 426 kts 289°
2026-04-30 09:46 45.41776 23.81615 36245 ft 426 kts 289°
2026-04-30 09:46 45.43818 23.73657 36264 ft 429 kts 289°
2026-04-30 09:47 45.45857 23.65682 36263 ft 428 kts 289°
2026-04-30 09:47 45.47888 23.57710 36261 ft 428 kts 289°
2026-04-30 09:48 45.49914 23.49732 36255 ft 428 kts 289°
2026-04-30 09:48 45.51937 23.41738 36259 ft 429 kts 289°
2026-04-30 09:49 45.53955 23.33733 36251 ft 429 kts 289°
2026-04-30 09:49 45.55972 23.25707 36254 ft 430 kts 289°
2026-04-30 09:50 45.57648 23.19018 36245 ft 431 kts 289°
2026-04-30 09:50 45.59987 23.09645 36249 ft 432 kts 289°
2026-04-30 09:51 45.61671 23.02875 36253 ft 432 kts 289°
2026-04-30 09:51 45.63666 22.94827 36249 ft 432 kts 289°
2026-04-30 09:52 45.65668 22.86723 36253 ft 433 kts 289°
2026-04-30 09:52 45.67666 22.78607 36255 ft 433 kts 289°
2026-04-30 09:53 45.69659 22.70483 36257 ft 433 kts 289°
2026-04-30 09:53 45.71650 22.62335 36253 ft 434 kts 289°
2026-04-30 09:54 45.73638 22.54170 36255 ft 434 kts 289°
2026-04-30 09:54 45.75622 22.45993 36260 ft 435 kts 289°
2026-04-30 09:55 45.77605 22.37787 36256 ft 436 kts 289°
2026-04-30 09:55 45.79588 22.29554 36260 ft 437 kts 289°
2026-04-30 09:56 45.81553 22.21366 36257 ft 438 kts 289°
2026-04-30 09:56 45.83529 22.13099 36258 ft 438 kts 289°
2026-04-30 09:57 45.85502 22.04815 36263 ft 439 kts 289°
2026-04-30 09:57 45.87470 21.96522 36265 ft 439 kts 289°
2026-04-30 09:58 45.89434 21.88214 36262 ft 440 kts 289°
2026-04-30 09:58 45.91396 21.79882 36271 ft 440 kts 289°
2026-04-30 09:59 45.95304 21.63192 36286 ft 441 kts 289°
2026-04-30 10:00 45.98223 21.50641 36280 ft 441 kts 289°
2026-04-30 10:01 46.01110 21.38156 36295 ft 441 kts 289°
2026-04-30 10:02 46.03999 21.25591 36295 ft 441 kts 289°
2026-04-30 10:02 46.05917 21.17206 36290 ft 441 kts 289°
2026-04-30 10:03 46.07832 21.08808 36297 ft 441 kts 289°
2026-04-30 10:03 46.09740 21.00403 36297 ft 441 kts 289°
2026-04-30 10:04 46.11641 20.91997 36299 ft 441 kts 289°
2026-04-30 10:04 46.13533 20.83593 36305 ft 440 kts 289°
2026-04-30 10:05 46.15419 20.75194 36316 ft 440 kts 289°
2026-04-30 10:05 46.17273 20.66786 36313 ft 440 kts 288°
2026-04-30 10:06 46.19027 20.58329 36318 ft 440 kts 288°
2026-04-30 10:06 46.20759 20.49864 36327 ft 439 kts 288°
2026-04-30 10:07 46.22493 20.41398 36321 ft 439 kts 288°
2026-04-30 10:07 46.24215 20.32993 36330 ft 439 kts 288°
2026-04-30 10:08 46.25943 20.24538 36337 ft 438 kts 288°
2026-04-30 10:08 46.27663 20.16087 36334 ft 438 kts 288°
2026-04-30 10:09 46.29377 20.07629 36337 ft 438 kts 288°
2026-04-30 10:09 46.31083 19.99173 36340 ft 437 kts 288°
2026-04-30 10:10 46.32780 19.90724 36337 ft 437 kts 288°
2026-04-30 10:10 46.34471 19.82274 36342 ft 437 kts 288°
2026-04-30 10:11 46.36154 19.73820 36344 ft 437 kts 288°
2026-04-30 10:11 46.37818 19.65431 36346 ft 436 kts 288°
2026-04-30 10:12 46.39489 19.56968 36346 ft 436 kts 288°
2026-04-30 10:12 46.41149 19.48523 36351 ft 436 kts 288°
2026-04-30 10:13 46.42805 19.40065 36351 ft 435 kts 288°
2026-04-30 10:13 46.44450 19.31622 36356 ft 435 kts 288°
2026-04-30 10:14 46.46089 19.23176 36356 ft 435 kts 288°
2026-04-30 10:14 46.48532 19.10516 36356 ft 434 kts 288°
2026-04-30 10:15 46.50152 19.02074 36368 ft 434 kts 288°
2026-04-30 10:15 46.51754 18.93689 36366 ft 433 kts 287°
2026-04-30 10:16 46.53360 18.85246 36370 ft 433 kts 287°
2026-04-30 10:17 46.55753 18.72596 36379 ft 433 kts 287°
2026-04-30 10:17 46.58129 18.59950 36376 ft 432 kts 287°
2026-04-30 10:18 46.59706 18.51508 36382 ft 432 kts 287°
2026-04-30 10:19 46.62058 18.38847 36383 ft 432 kts 287°
2026-04-30 10:19 46.63608 18.30460 36380 ft 431 kts 287°
2026-04-30 10:20 46.65161 18.22015 36381 ft 431 kts 287°
2026-04-30 10:20 46.67475 18.09358 36386 ft 431 kts 287°
2026-04-30 10:21 46.69008 18.00924 36392 ft 431 kts 287°
2026-04-30 10:21 46.70534 17.92492 36393 ft 431 kts 287°
2026-04-30 10:22 46.72054 17.84053 36394 ft 430 kts 287°
2026-04-30 10:22 46.73567 17.75614 36399 ft 430 kts 287°
2026-04-30 10:23 46.75065 17.67219 36398 ft 430 kts 286°
2026-04-30 10:23 46.76563 17.58785 36403 ft 430 kts 286°
2026-04-30 10:24 46.78056 17.50339 36409 ft 429 kts 286°
2026-04-30 10:24 46.79539 17.41910 36422 ft 429 kts 286°
2026-04-30 10:25 46.81018 17.33462 36415 ft 429 kts 286°
2026-04-30 10:25 46.82490 17.25017 36422 ft 429 kts 286°
2026-04-30 10:26 46.83957 17.16561 36421 ft 430 kts 286°
2026-04-30 10:26 46.85409 17.08149 36431 ft 429 kts 286°
2026-04-30 10:27 46.86862 16.99689 36429 ft 429 kts 286°
2026-04-30 10:27 46.88308 16.91232 36415 ft 429 kts 286°
2026-04-30 10:28 46.89751 16.82754 36413 ft 429 kts 286°
2026-04-30 10:28 46.91185 16.74285 36422 ft 429 kts 286°
2026-04-30 10:29 46.92611 16.65818 36425 ft 429 kts 286°
2026-04-30 10:29 46.94032 16.57344 36418 ft 429 kts 286°
2026-04-30 10:30 46.95446 16.48865 36419 ft 429 kts 285°
2026-04-30 10:30 46.96848 16.40422 36416 ft 429 kts 285°
2026-04-30 10:31 46.98250 16.31939 36419 ft 429 kts 285°
2026-04-30 10:31 46.99646 16.23448 36423 ft 428 kts 285°
2026-04-30 10:32 47.00805 16.14867 36418 ft 430 kts 282°
2026-04-30 10:32 47.01787 16.06231 36418 ft 430 kts 282°
2026-04-30 10:33 47.02765 15.97592 36415 ft 429 kts 282°
2026-04-30 10:33 47.03758 15.88963 36410 ft 429 kts 282°
2026-04-30 10:34 47.04751 15.80386 36408 ft 429 kts 282°
2026-04-30 10:34 47.05747 15.71749 36401 ft 429 kts 282°
2026-04-30 10:35 47.06737 15.63112 36399 ft 428 kts 282°
2026-04-30 10:35 47.07715 15.54506 36402 ft 428 kts 282°
2026-04-30 10:36 47.08690 15.45877 36408 ft 428 kts 281°
2026-04-30 10:36 47.09655 15.37265 36390 ft 428 kts 281°
2026-04-30 10:37 47.10613 15.28656 36398 ft 427 kts 281°
2026-04-30 10:37 47.11565 15.20042 36385 ft 427 kts 281°
2026-04-30 10:38 47.12510 15.11432 36384 ft 427 kts 281°
2026-04-30 10:38 47.13441 15.02895 36356 ft 427 kts 281°
2026-04-30 10:39 47.14372 14.94291 36344 ft 426 kts 281°
2026-04-30 10:39 47.15294 14.85696 36345 ft 426 kts 281°
2026-04-30 10:40 47.16058 14.78540 36337 ft 426 kts 281°
2026-04-30 10:40 47.16969 14.69941 36344 ft 426 kts 281°
2026-04-30 10:41 47.17874 14.61335 36347 ft 425 kts 281°
2026-04-30 10:41 47.18770 14.52743 36352 ft 425 kts 281°
2026-04-30 10:42 47.19662 14.44135 36348 ft 426 kts 281°
2026-04-30 10:42 47.20548 14.35521 36349 ft 425 kts 281°
2026-04-30 10:43 47.21425 14.26924 36349 ft 425 kts 280°
2026-04-30 10:43 47.22290 14.18376 36341 ft 424 kts 280°
2026-04-30 10:44 47.23153 14.09789 36332 ft 424 kts 280°
2026-04-30 10:44 47.24008 14.01215 36334 ft 423 kts 280°
2026-04-30 10:45 47.24856 13.92641 36316 ft 423 kts 280°
2026-04-30 10:45 47.25696 13.84079 36323 ft 422 kts 280°
2026-04-30 10:46 47.26523 13.75581 36283 ft 422 kts 280°
2026-04-30 10:46 47.27348 13.67042 36322 ft 421 kts 280°
2026-04-30 10:47 47.28169 13.58482 36317 ft 422 kts 279°
2026-04-30 10:47 47.28983 13.49916 36311 ft 422 kts 279°
2026-04-30 10:48 47.29791 13.41349 36306 ft 422 kts 279°
2026-04-30 10:48 47.30591 13.32786 36308 ft 421 kts 279°
2026-04-30 10:49 47.31378 13.24300 36306 ft 421 kts 279°
2026-04-30 10:49 47.32165 13.15738 36293 ft 421 kts 279°
2026-04-30 10:50 47.32944 13.07199 36295 ft 420 kts 279°
2026-04-30 10:50 47.33715 12.98669 36281 ft 420 kts 279°
2026-04-30 10:51 47.34480 12.90139 36299 ft 419 kts 279°
2026-04-30 10:51 47.35237 12.81617 36291 ft 419 kts 279°
2026-04-30 10:52 47.35989 12.73088 36291 ft 419 kts 279°
2026-04-30 10:52 47.36733 12.64570 36305 ft 419 kts 279°
2026-04-30 10:53 47.37472 12.56037 36288 ft 419 kts 279°
2026-04-30 10:53 47.38202 12.47535 36308 ft 417 kts 278°
2026-04-30 10:54 47.38927 12.39029 36300 ft 417 kts 278°
2026-04-30 10:54 47.39663 12.30550 36316 ft 416 kts 279°
2026-04-30 10:55 47.40470 12.22099 36324 ft 415 kts 279°
2026-04-30 10:55 47.41273 12.13655 36322 ft 415 kts 279°
2026-04-30 10:56 47.42056 12.05260 36320 ft 414 kts 279°
2026-04-30 10:56 47.42448 12.01031 36182 ft 417 kts 279°
2026-04-30 10:56 47.42838 11.96786 35927 ft 415 kts 278°
2026-04-30 10:57 47.43016 11.92551 35654 ft 414 kts 267°
2026-04-30 10:57 47.42612 11.88343 35436 ft 413 kts 264°
2026-04-30 10:57 47.42155 11.84147 35186 ft 413 kts 264°
2026-04-30 10:57 47.41710 11.80011 34944 ft 412 kts 264°
2026-04-30 10:58 47.41270 11.75829 34273 ft 414 kts 264°
2026-04-30 10:58 47.40834 11.71629 33398 ft 413 kts 264°
2026-04-30 10:58 47.40403 11.67437 32530 ft 413 kts 264°
2026-04-30 10:58 47.39971 11.63229 31598 ft 415 kts 264°
2026-04-30 10:59 47.39543 11.59059 30693 ft 417 kts 264°
2026-04-30 10:59 47.39105 11.54803 29571 ft 420 kts 264°
2026-04-30 10:59 47.38663 11.50533 28484 ft 421 kts 264°
2026-04-30 10:59 47.38217 11.46249 27358 ft 423 kts 263°
2026-04-30 11:00 47.37767 11.41941 26527 ft 421 kts 263°
2026-04-30 11:00 47.37326 11.37750 25864 ft 414 kts 263°
2026-04-30 11:00 47.36882 11.33519 25035 ft 422 kts 263°
2026-04-30 11:00 47.36427 11.29183 24289 ft 431 kts 263°
2026-04-30 11:01 47.35966 11.24812 23469 ft 430 kts 262°
2026-04-30 11:01 47.35504 11.20479 22425 ft 426 kts 262°
2026-04-30 11:01 47.34801 11.16257 21426 ft 424 kts 249°
2026-04-30 11:01 47.33290 11.12546 20559 ft 423 kts 233°
2026-04-30 11:02 47.31152 11.09568 19691 ft 424 kts 219°
2026-04-30 11:02 47.28935 11.06769 18777 ft 417 kts 233°
2026-04-30 11:02 47.27662 11.03064 18445 ft 397 kts 258°
2026-04-30 11:02 47.27535 10.99128 18421 ft 380 kts 281°
2026-04-30 11:03 47.28481 10.95568 18445 ft 384 kts 302°
2026-04-30 11:03 47.28822 10.94820 18461 ft 388 kts 305°